When you browse on this site, cookies collect data to enhance your experience and personalize the content and advertising you see.
Visit our Privacy Policy to learn more. By continuing to use the site, you agree to this use of cookies and data.
  • In Hungary
  • List of Countries
  • For 7 days
  • Water Temperature
  • Satellite Maps
  • Weather Map
  • News
  • Weather Widgets
  • user-avatar
    Login

    Hourly Weather Booué

    Today, 16 January, Wednesday

    Time Temperature Precipitation Wind Pressure Humidity
    00:00 +26°C° 0 mm 1 mps 735 mmHg 85%
    01:00 +26°C° 0 mm 1 mps 735 mmHg 90%
    02:00 +25°C° 0 mm 1 mps 735 mmHg 91%
    03:00 +25°C° 0 mm 1 mps 734 mmHg 93%
    04:00 +25°C° 0 mm 1 mps 734 mmHg 94%
    05:00 +25°C° 0 mm 1 mps 734 mmHg 94%
    06:00 +25°C° 0 mm 1 mps 735 mmHg 93%
    07:00 +26°C° 0 mm 1 mps 735 mmHg 91%
    08:00 +28°C° 0 mm 1 mps 735 mmHg 80%
    09:00 +30°C° 0 mm 1 mps 735 mmHg 69%
    10:00 +33°C° 0 mm 1 mps 736 mmHg 58%
    11:00 +34°C° 0.2 mm 1 mps 735 mmHg 54%
    12:00 +36°C° 0.2 mm 1 mps 735 mmHg 49%
    13:00 +35°C° 0.2 mm 0 mps 734 mmHg 44%
    14:00 +36°C° 0 mm 1 mps 733 mmHg 46%
    15:00 +35°C° 0 mm 1 mps 733 mmHg 49%
    16:00 +34°C° 0 mm 1 mps 732 mmHg 51%
    17:00 +32°C° 0.1 mm 1 mps 732 mmHg 57%
    18:00 +31°C° 0.1 mm 1 mps 732 mmHg 63%
    19:00 +29°C° 0.1 mm 1 mps 732 mmHg 69%
    20:00 +29°C° 0 mm 1 mps 733 mmHg 72%
    21:00 +28°C° 0 mm 1 mps 733 mmHg 76%
    22:00 +27°C° 0 mm 1 mps 734 mmHg 79%
    23:00 +27°C° 0 mm 1 mps 734 mmHg 81%

    Tomorrow, 17 January, Thursday

    Time Temperature Precipitation Wind Pressure Humidity
    00:00 +27°C° 0 mm 1 mps 734 mmHg 83%
    01:00 +26°C° 0 mm 1 mps 734 mmHg 85%
    02:00 +26°C° 0 mm 1 mps 734 mmHg 86%
    03:00 +26°C° 0 mm 1 mps 734 mmHg 88%
    04:00 +25°C° 0 mm 1 mps 733 mmHg 89%
    05:00 +25°C° 0.3 mm 1 mps 734 mmHg 90%
    06:00 +25°C° 0.3 mm 1 mps 734 mmHg 90%
    07:00 +25°C° 0.3 mm 1 mps 734 mmHg 91%
    08:00 +27°C° 0 mm 1 mps 734 mmHg 83%
    09:00 +29°C° 0 mm 1 mps 735 mmHg 76%
    10:00 +30°C° 0 mm 1 mps 735 mmHg 69%
    11:00 +31°C° 0.5 mm 1 mps 735 mmHg 67%
    12:00 +32°C° 0.5 mm 1 mps 734 mmHg 64%
    13:00 +33°C° 0.5 mm 1 mps 734 mmHg 61%
    14:00 +33°C° 0.7 mm 1 mps 733 mmHg 62%
    15:00 +33°C° 0.7 mm 1 mps 732 mmHg 62%
    16:00 +33°C° 0.7 mm 1 mps 732 mmHg 63%
    17:00 +31°C° 0.3 mm 1 mps 732 mmHg 70%
    18:00 +29°C° 0.3 mm 1 mps 733 mmHg 76%
    19:00 +28°C° 0.3 mm 1 mps 733 mmHg 83%
    20:00 +27°C° 2.2 mm 1 mps 734 mmHg 85%
    21:00 +27°C° 2.2 mm 1 mps 735 mmHg 88%
    22:00 +26°C° 2.2 mm 2 mps 735 mmHg 90%
    23:00 +26°C° 0.3 mm 2 mps 735 mmHg 91%

    Day after tomorrow, 18 January, Friday

    Time Temperature Precipitation Wind Pressure Humidity
    00:00 +25°C° 0.3 mm 2 mps 735 mmHg 92%
    01:00 +25°C° 0.3 mm 2 mps 735 mmHg 92%
    02:00 +25°C° 0 mm 1 mps 734 mmHg 93%
    03:00 +24°C° 0 mm 1 mps 734 mmHg 94%
    04:00 +24°C° 0 mm 1 mps 734 mmHg 95%
    05:00 +24°C° 0 mm 1 mps 734 mmHg 94%
    06:00 +24°C° 0 mm 1 mps 735 mmHg 94%
    07:00 +22°C° 0 mm 0 mps 735 mmHg 94%
    08:00 +26°C° 0 mm 1 mps 736 mmHg 85%
    09:00 +28°C° 0 mm 1 mps 736 mmHg 75%
    10:00 +30°C° 0 mm 1 mps 737 mmHg 66%
    11:00 +31°C° 0.3 mm 1 mps 736 mmHg 63%
    12:00 +32°C° 0.3 mm 1 mps 735 mmHg 59%
    13:00 +34°C° 0.3 mm 2 mps 734 mmHg 55%
    14:00 +34°C° 0.5 mm 2 mps 734 mmHg 56%
    15:00 +34°C° 0.5 mm 2 mps 733 mmHg 57%
    16:00 +32°C° 0.5 mm 2 mps 732 mmHg 58%
    17:00 +31°C° 0.3 mm 1 mps 733 mmHg 66%
    18:00 +29°C° 0.3 mm 1 mps 733 mmHg 73%
    19:00 +27°C° 0.3 mm 1 mps 734 mmHg 81%
    20:00 +27°C° 0.3 mm 1 mps 734 mmHg 82%
    21:00 +26°C° 0.3 mm 1 mps 735 mmHg 84%
    22:00 +26°C° 0.3 mm 1 mps 736 mmHg 86%
    23:00 +25°C° 0 mm 1 mps 735 mmHg 87%

    19 January, Saturday

    Time Temperature Precipitation Wind Pressure Humidity
    00:00 +25°C° 0 mm 1 mps 735 mmHg 88%
    01:00 +25°C° 0 mm 1 mps 734 mmHg 90%
    02:00 +24°C° 0 mm 1 mps 734 mmHg 91%
    03:00 +24°C° 0 mm 1 mps 734 mmHg 93%
    04:00 +22°C° 0 mm 0 mps 734 mmHg 94%
    05:00 +22°C° 0 mm 0 mps 734 mmHg 94%
    06:00 +22°C° 0 mm 0 mps 735 mmHg 93%
    07:00 +22°C° 0 mm 0 mps 735 mmHg 93%
    08:00 +25°C° 0 mm 0 mps 736 mmHg 81%
    09:00 +28°C° 0 mm 0 mps 736 mmHg 69%
    10:00 +30°C° 0 mm 0 mps 736 mmHg 57%
    11:00 +32°C° 0 mm 0 mps 736 mmHg 51%
    12:00 +33°C° 0 mm 0 mps 735 mmHg 46%
    13:00 +37°C° 0 mm 1 mps 734 mmHg 40%
    14:00 +36°C° 0 mm 1 mps 733 mmHg 41%
    15:00 +36°C° 0 mm 1 mps 733 mmHg 41%
    16:00 +35°C° 0 mm 1 mps 732 mmHg 41%
    17:00 +33°C° 0 mm 1 mps 732 mmHg 49%
    18:00 +32°C° 0 mm 1 mps 733 mmHg 56%
    19:00 +30°C° 0 mm 1 mps 733 mmHg 64%
    20:00 +29°C° 0 mm 1 mps 734 mmHg 66%
    21:00 +28°C° 0 mm 1 mps 734 mmHg 69%
    22:00 +26°C° 0 mm 0 mps 735 mmHg 72%
    23:00 +27°C° 0 mm 1 mps 735 mmHg 74%

    20 January, Sunday

    Time Temperature Precipitation Wind Pressure Humidity
    00:00 +27°C° 0 mm 1 mps 734 mmHg 76%
    01:00 +26°C° 0 mm 2 mps 734 mmHg 78%
    02:00 +26°C° 0 mm 2 mps 734 mmHg 82%
    03:00 +26°C° 0 mm 1 mps 734 mmHg 86%
    04:00 +25°C° 0 mm 1 mps 734 mmHg 90%
    05:00 +25°C° 0 mm 1 mps 734 mmHg 90%
    06:00 +25°C° 0 mm 1 mps 735 mmHg 90%
    07:00 +26°C° 0 mm 1 mps 735 mmHg 90%
    08:00 +27°C° 0 mm 1 mps 735 mmHg 84%
    09:00 +28°C° 0 mm 1 mps 736 mmHg 78%
    10:00 +29°C° 0 mm 1 mps 736 mmHg 72%
    11:00 +31°C° 0 mm 2 mps 735 mmHg 65%
    12:00 +34°C° 0 mm 2 mps 735 mmHg 59%
    13:00 +35°C° 0 mm 2 mps 734 mmHg 52%
    14:00 +35°C° 0 mm 1 mps 733 mmHg 50%
    15:00 +35°C° 0 mm 1 mps 733 mmHg 47%
    16:00 +35°C° 0 mm 1 mps 732 mmHg 45%
    17:00 +33°C° 0.7 mm 1 mps 733 mmHg 56%
    18:00 +30°C° 0.7 mm 2 mps 733 mmHg 67%
    19:00 +28°C° 0.7 mm 2 mps 734 mmHg 78%
    20:00 +27°C° 0 mm 2 mps 734 mmHg 81%
    21:00 +26°C° 0 mm 2 mps 735 mmHg 84%
    22:00 +26°C° 0 mm 2 mps 736 mmHg 88%
    23:00 +25°C° 0 mm 2 mps 735 mmHg 89%

    21 January, Monday

    Time Temperature Precipitation Wind Pressure Humidity
    00:00 +25°C° 0 mm 1 mps 735 mmHg 90%
    01:00 +25°C° 0 mm 1 mps 735 mmHg 91%
    02:00 +25°C° 0.1 mm 1 mps 735 mmHg 92%
    03:00 +24°C° 0.1 mm 1 mps 735 mmHg 93%
    04:00 +24°C° 0.1 mm 1 mps 735 mmHg 94%
    05:00 +24°C° 0 mm 1 mps 735 mmHg 94%
    06:00 +24°C° 0 mm 1 mps 735 mmHg 94%
    07:00 +24°C° 0 mm 1 mps 736 mmHg 93%
    08:00 +26°C° 0 mm 1 mps 736 mmHg 85%
    09:00 +28°C° 0 mm 1 mps 736 mmHg 77%
    10:00 +29°C° 0 mm 1 mps 736 mmHg 69%
    11:00 +31°C° 0.1 mm 1 mps 735 mmHg 64%
    12:00 +32°C° 0.1 mm 2 mps 735 mmHg 58%
    13:00 +34°C° 0.1 mm 2 mps 734 mmHg 53%
    14:00 +34°C° 0.4 mm 2 mps 733 mmHg 54%
    15:00 +33°C° 0.4 mm 1 mps 733 mmHg 54%
    16:00 +34°C° 0.4 mm 1 mps 732 mmHg 54%
    17:00 +31°C° 0.9 mm 1 mps 732 mmHg 65%
    18:00 +29°C° 0.9 mm 1 mps 733 mmHg 76%
    19:00 +27°C° 0.9 mm 1 mps 733 mmHg 88%
    20:00 +26°C° 0.3 mm 1 mps 734 mmHg 89%
    21:00 +26°C° 0.3 mm 1 mps 734 mmHg 90%
    22:00 +26°C° 0.3 mm 1 mps 735 mmHg 91%
    23:00 +25°C° 0.2 mm 1 mps 734 mmHg 91%
    Show more